Weather History for Robinson, IL

Change the Weather History Date:

Friday, August 30, 2013

  Actual Average (KLWV) Record (KLWV)
Temperature  
Mean Temperature 80 °F 75 °F  
Max Temperature 96 °F 87 °F 97 °F (2013)
Min Temperature 66 °F 63 °F 52 °F (1999)
Degree Days  
Heating Degree Days 0 0  
Month to date heating degree days 0  
Since 1 June heating degree days 7  
Since 1 July heating degree days 0  
Cooling Degree Days 16 10  
Month to date cooling degree days 344  
Year to date cooling degree days 1171  
Since 1 June cooling degree days 1032  
Growing Degree Days 30 (Base 50)    
Moisture  
Dew Point 72 °F    
Average Humidity 79    
Maximum Humidity 98    
Minimum Humidity 47    
Precipitation  
Precipitation 0.02 in 0.10 in 1.65 in (1978)
Month to date precipitation 3.29  
Year to date precipitation 29.25  
Sea Level Pressure  
Sea Level Pressure 29.93 in    
Wind  
Wind Speed 2 mph (SSW)    
Max Wind Speed 9 mph    
Max Gust Speed 16 mph    
Visibility 7 miles    
Events Fog , Rain    
T = Trace of Precipitation, MM = Missing Value Source: NWS Daily Summary

Daily Weather History Graph

Daily Weather History Graph

Search for Another Location

Airport:

Trip Planner

Search our weather history database for the weather conditions in past years. The results will help you decide how hot, cold, wet, or windy it might be!

Date:

Astronomy

Aug. 30, 2013 Rise Set
Actual Time 6:17 AM CDT 7:23 PM CDT
Civil Twilight 5:50 AM CDT 7:51 PM CDT
Nautical Twilight 5:17 AM CDT 8:23 PM CDT
Astronomical Twilight 4:43 AM CDT 8:57 PM CDT
Moon 12:57 AM CDT (8/30) 3:37 PM CDT (8/30)
Length of Visible Light 14h 00m
Length of Day
13h 05m
Waning Crescent, 29% of the Moon is Illuminated
Aug 30
Waning Crescent
Sep 5
New
Sep 12
First Quarter
Sep 19
Full
Sep 26
Last Quarter

Hourly Weather History & Observations

Time (CDT) Temp. Heat Index Dew Point Humidity Pressure Visibility Wind Dir Wind Speed Gust Speed Precip Events Conditions
12:15 AM 69.8 °F - 68.4 °F 95% 29.99 in 4.0 mi Calm Calm - N/A   Clear
12:35 AM 68.5 °F - 67.3 °F 96% 29.99 in 4.0 mi Calm Calm - N/A   Clear
12:55 AM 68.7 °F - 67.3 °F 95% 29.99 in 4.0 mi Calm Calm - N/A   Clear
1:15 AM 68.4 °F - 67.1 °F 96% 29.99 in 5.0 mi Calm Calm - N/A   Clear
1:35 AM 68.0 °F - 66.7 °F 96% 29.99 in 4.0 mi Calm Calm - N/A   Clear
1:55 AM 68.0 °F - 66.7 °F 96% 29.99 in 5.0 mi Calm Calm - N/A   Clear
2:15 AM 67.3 °F - 66.2 °F 96% 29.99 in 0.8 mi Calm Calm - N/A   Mist
2:35 AM 67.5 °F - 66.6 °F 97% 29.98 in 3.0 mi Calm Calm - N/A   Clear
2:55 AM 67.5 °F - 66.7 °F 98% 29.98 in 0.5 mi Calm Calm - N/A Fog Fog
3:15 AM 67.5 °F - 66.7 °F 98% 29.98 in 0.2 mi Calm Calm - N/A Fog Fog
3:35 AM 67.6 °F - 66.9 °F 98% 29.98 in 2.0 mi Calm Calm - N/A   Mist
3:55 AM 67.5 °F - 66.7 °F 98% 29.98 in 0.5 mi Calm Calm - N/A Fog Fog
4:15 AM 67.6 °F - 66.9 °F 98% 29.98 in 1.0 mi Calm Calm - N/A   Overcast
4:35 AM 67.5 °F - 66.7 °F 98% 29.98 in 0.5 mi Calm Calm - N/A Fog Fog
4:55 AM 67.6 °F - 67.1 °F 98% 29.98 in 0.2 mi Calm Calm - N/A Fog Fog
5:15 AM 67.5 °F - 66.9 °F 98% 29.98 in 0.2 mi Calm Calm - N/A Fog Fog
5:35 AM 67.3 °F - 66.7 °F 98% 29.98 in 0.2 mi Calm Calm - N/A Fog Fog
5:55 AM 67.1 °F - 66.6 °F 98% 29.98 in 0.2 mi Calm Calm - N/A Fog Fog
6:15 AM 66.7 °F - 66.2 °F 98% 29.98 in 0.2 mi Calm Calm - N/A Fog Fog
6:35 AM 67.1 °F - 66.4 °F 98% 29.98 in 1.0 mi Calm Calm - N/A   Mist
6:55 AM 68.2 °F - 67.6 °F 98% 29.99 in 1.0 mi Calm Calm - N/A   Mist
7:15 AM 69.8 °F - 69.1 °F 98% 29.99 in 1.8 mi Calm Calm - N/A   Mist
7:35 AM 71.4 °F - 70.7 °F 98% 29.99 in 2.5 mi Calm Calm - N/A   Clear
7:55 AM 72.9 °F - 72.0 °F 97% 29.99 in 4.0 mi Calm Calm - N/A   Clear
9:15 AM 82.0 °F 87.7 °F 73.6 °F 75% 29.98 in 10.0 mi Calm Calm - N/A   Clear
9:35 AM 84.2 °F 91.6 °F 74.1 °F 72% 29.98 in 10.0 mi Calm Calm - N/A   Clear
9:55 AM 85.3 °F 93.0 °F 73.9 °F 69% 29.98 in 10.0 mi Calm Calm - N/A   Clear
10:15 AM 86.7 °F 95.0 °F 74.3 °F 66% 29.98 in 10.0 mi South 4.6 mph - N/A   Clear
10:35 AM 88.2 °F 96.9 °F 73.9 °F 63% 29.97 in 10.0 mi SSW 3.5 mph - N/A   Clear
10:55 AM 88.9 °F 98.6 °F 74.7 °F 63% 29.96 in 10.0 mi South 4.6 mph - N/A   Clear
11:15 AM 90.5 °F 102.1 °F 75.9 °F 62% 29.96 in 10.0 mi South 5.8 mph - N/A   Clear
11:35 AM 90.5 °F 102.7 °F 76.3 °F 63% 29.96 in 10.0 mi South 5.8 mph - N/A   Clear
11:55 AM 91.9 °F 104.5 °F 76.5 °F 60% 29.95 in 10.0 mi SSW 6.9 mph - N/A   Clear
12:15 PM 92.3 °F 104.8 °F 76.1 °F 59% 29.95 in 10.0 mi SSW 4.6 mph - N/A   Clear
12:35 PM 92.8 °F 105.5 °F 75.9 °F 58% 29.94 in 10.0 mi South 4.6 mph - N/A   Clear
12:55 PM 93.6 °F 106.7 °F 76.3 °F 57% 29.94 in 10.0 mi SSW 4.6 mph - N/A   Clear
1:15 PM 94.1 °F 106.6 °F 75.6 °F 55% 29.93 in 10.0 mi West 5.8 mph - N/A   Clear
1:35 PM 94.5 °F 106.0 °F 75.2 °F 53% 29.93 in 10.0 mi SW 3.5 mph - N/A   Clear
1:55 PM 95.0 °F 105.2 °F 73.9 °F 50% 29.93 in 10.0 mi WSW 5.8 mph - N/A   Clear
2:15 PM 95.4 °F 105.4 °F 73.6 °F 49% 29.91 in 10.0 mi West 5.8 mph - N/A   Clear
2:35 PM 95.0 °F 103.8 °F 72.7 °F 48% 29.90 in 10.0 mi South 5.8 mph - N/A   Scattered Clouds
2:55 PM 94.6 °F 102.4 °F 71.8 °F 47% 29.90 in 10.0 mi SW 4.6 mph - N/A   Scattered Clouds
3:35 PM 91.2 °F 101.4 °F 74.7 °F 58% 29.89 in 10.0 mi West 9.2 mph - N/A   Scattered Clouds
3:55 PM 91.8 °F 103.4 °F 75.4 °F 59% 29.89 in 10.0 mi SW 9.2 mph - N/A   Clear
4:15 PM 91.6 °F 102.3 °F 75.0 °F 58% 29.89 in 10.0 mi SSW 8.1 mph - N/A   Scattered Clouds
4:35 PM 91.4 °F 101.3 °F 74.3 °F 57% 29.88 in 10.0 mi South 5.8 mph 16.1 mph N/A   Scattered Clouds
4:55 PM 91.4 °F 100.1 °F 73.4 °F 55% 29.87 in 10.0 mi South 8.1 mph 16.1 mph N/A   Clear
5:15 PM 90.5 °F 100.3 °F 74.5 °F 59% 29.87 in 10.0 mi South 5.8 mph - N/A   Clear
5:35 PM 90.5 °F 99.7 °F 74.1 °F 58% 29.86 in 10.0 mi South 4.6 mph - N/A   Clear
5:55 PM 89.6 °F 99.8 °F 75.0 °F 62% 29.85 in 10.0 mi South 5.8 mph - N/A   Clear
6:15 PM 88.3 °F 98.9 °F 75.7 °F 66% 29.85 in 10.0 mi South 5.8 mph - N/A   Clear
6:35 PM 86.9 °F 96.8 °F 75.7 °F 69% 29.86 in 10.0 mi SSE 5.8 mph - N/A   Clear
6:55 PM 85.3 °F 94.6 °F 75.6 °F 73% 29.86 in 10.0 mi South 4.6 mph - N/A   Clear
7:15 PM 83.3 °F 91.8 °F 76.1 °F 79% 29.86 in 10.0 mi South 4.6 mph - N/A   Clear
7:35 PM 82.4 °F 90.3 °F 76.3 °F 82% 29.86 in 10.0 mi South 4.6 mph - N/A   Clear
7:55 PM 81.7 °F 89.2 °F 76.6 °F 85% 29.87 in 10.0 mi South 3.5 mph - N/A   Scattered Clouds
8:15 PM 81.5 °F 89.0 °F 77.0 °F 86% 29.87 in 10.0 mi South 4.6 mph - N/A   Scattered Clouds
8:35 PM 80.6 °F 86.9 °F 76.6 °F 88% 29.88 in 10.0 mi Calm Calm - N/A   Scattered Clouds
8:55 PM 80.6 °F 86.8 °F 76.5 °F 87% 29.87 in 10.0 mi South 5.8 mph - N/A   Scattered Clouds
9:15 PM 81.0 °F 87.3 °F 76.1 °F 85% 29.87 in 10.0 mi South 5.8 mph - N/A   Scattered Clouds
9:35 PM 81.5 °F 88.5 °F 76.1 °F 84% 29.86 in 10.0 mi South 6.9 mph - N/A   Mostly Cloudy
9:55 PM 81.0 °F 87.1 °F 75.7 °F 84% 29.86 in 10.0 mi South 4.6 mph - N/A   Mostly Cloudy
10:15 PM 79.9 °F - 75.4 °F 86% 29.86 in 10.0 mi SSW 3.5 mph - N/A   Clear
10:35 PM 79.0 °F - 75.2 °F 88% 29.86 in 10.0 mi SW 4.6 mph - N/A   Clear
10:55 PM 81.5 °F 87.6 °F 74.7 °F 80% 29.86 in 10.0 mi WSW 3.5 mph - N/A   Scattered Clouds
11:15 PM 78.8 °F - 74.8 °F 88% 29.87 in 10.0 mi NW 5.8 mph - N/A   Scattered Clouds
11:35 PM 80.6 °F 86.2 °F 75.2 °F 84% 29.86 in 7.0 mi SSW 9.2 mph - 0.02 in Rain Light Rain
11:55 PM 78.8 °F - 75.0 °F 88% 29.86 in 10.0 mi South 6.9 mph - 0.02 in   Scattered Clouds